Weather History for KMDW - December, 2013

Change the Weather History Date:

Sunday, December 22, 2013

  Actual Average Record
Temperature  
Mean Temperature 31 °F 27 °F  
Max Temperature 35 °F 33 °F 57 °F (1957)
Min Temperature 26 °F 21 °F -12 °F (1989)
Degree Days  
Heating Degree Days 34 38  
Month to date heating degree days 852 767  
Since 1 July heating degree days 2050 1902  
Cooling Degree Days 0 0  
Month to date cooling degree days 0 0  
Year to date cooling degree days 1091 1045  
Moisture  
Dew Point 29 °F    
Average Humidity 88    
Maximum Humidity 100    
Minimum Humidity 74    
Precipitation  
Precipitation 0.05 in 0.08 in 0.98 in (2006)
Month to date precipitation 0.83 1.90  
Year to date precipitation 34.40 38.42  
Sea Level Pressure  
Sea Level Pressure 29.82 in    
Wind  
Wind Speed 11 mph (NW)    
Max Wind Speed 21 mph    
Max Gust Speed 24 mph    
Visibility 7 miles    
Events Rain , Snow    
T = Trace of Precipitation, MM = Missing Value Source: NWS Daily Summary

Daily Weather History Graph

Daily Weather History Graph

Search for Another Location

Airport or City:

Trip Planner

Search our weather history database for the weather conditions in past years. The results will help you decide how hot, cold, wet, or windy it might be!

Date:

Astronomy

Dec. 22, 2013 Rise Set
Actual Time 7:15 AM CST 4:24 PM CST
Civil Twilight 6:43 AM CST 4:55 PM CST
Nautical Twilight 6:08 AM CST 5:30 PM CST
Astronomical Twilight 5:34 AM CST 6:04 PM CST
Moon 9:40 PM CST (12/22) 10:07 AM CST (12/22)
Length of Visible Light 10h 11m
Length of Day
9h 08m
Waning Gibbous, 76% of the Moon is Illuminated
Dec 22
Waning Gibbous
Dec 25
Last Quarter
Jan 1
New
Jan 7
First Quarter
Jan 15
Full

Hourly Weather History & Observations

Time (CST) Temp. Windchill Dew Point Humidity Pressure Visibility Wind Dir Wind Speed Gust Speed Precip Events Conditions
12:44 AM 33.8 °F 27.0 °F 33.8 °F 100% 29.63 in 7.0 mi NE 8.1 mph - 0.00 in Rain Light Rain
12:51 AM 34.0 °F 26.6 °F 33.1 °F 96% 29.65 in 6.0 mi NE 9.2 mph - 0.00 in Rain Light Rain
1:51 AM 34.0 °F 23.0 °F 32.0 °F 92% 29.63 in 4.0 mi NNE 18.4 mph - 0.02 in Rain Light Rain
2:51 AM 34.0 °F 22.7 °F 32.0 °F 92% 29.63 in 3.0 mi NNE 19.6 mph 24.2 mph 0.00 in   Light Drizzle
3:51 AM 34.0 °F 23.8 °F 32.0 °F 92% 29.62 in 3.0 mi NE 16.1 mph - 0.00 in   Light Drizzle
4:29 AM 33.8 °F 24.8 °F 32.0 °F 93% 29.59 in 4.0 mi NNE 12.7 mph - 0.00 in   Light Drizzle
4:51 AM 34.0 °F 24.2 °F 32.0 °F 92% 29.62 in 6.0 mi NNE 15.0 mph - 0.00 in   Light Drizzle
5:51 AM 34.0 °F 25.0 °F 30.9 °F 89% 29.65 in 10.0 mi ENE 12.7 mph 18.4 mph 0.00 in   Overcast
6:41 AM 33.8 °F 28.6 °F 32.0 °F 93% 29.65 in 4.0 mi North 5.8 mph - 0.01 in Rain Light Rain
6:51 AM 34.0 °F 28.8 °F 32.0 °F 92% 29.68 in 4.0 mi North 5.8 mph - 0.01 in Rain Light Rain
7:23 AM 33.8 °F 28.6 °F 32.0 °F 93% 29.67 in 2.5 mi NW 5.8 mph - 0.01 in Rain , Snow Light Rain
7:37 AM 33.8 °F 27.0 °F 32.0 °F 93% 29.67 in 1.5 mi NW 8.1 mph - 0.02 in Rain , Snow Light Rain
7:51 AM 33.1 °F 27.7 °F 32.0 °F 96% 29.71 in 1.5 mi NW 5.8 mph - 0.02 in Snow Light Snow
8:21 AM 33.8 °F 27.0 °F 32.0 °F 93% 29.70 in 2.5 mi NW 8.1 mph - 0.00 in Snow Light Snow
8:35 AM 33.8 °F 27.7 °F 32.0 °F 93% 29.71 in 3.0 mi NW 6.9 mph - 0.00 in   Overcast
8:51 AM 33.1 °F 26.9 °F 32.0 °F 96% 29.74 in 6.0 mi NW 6.9 mph - 0.00 in   Overcast
9:51 AM 33.1 °F 25.5 °F 30.9 °F 92% 29.78 in 10.0 mi NW 9.2 mph - N/A   Overcast
10:40 AM 33.8 °F 25.3 °F 30.2 °F 87% 29.76 in 10.0 mi NW 11.5 mph - N/A   Overcast
10:51 AM 33.1 °F 25.5 °F 30.0 °F 89% 29.80 in 10.0 mi NW 9.2 mph - N/A   Overcast
11:51 AM 34.0 °F 26.6 °F 30.0 °F 85% 29.81 in 10.0 mi NW 9.2 mph - N/A   Overcast
12:51 PM 33.1 °F 24.9 °F 28.9 °F 85% 29.83 in 10.0 mi WNW 10.4 mph - N/A   Overcast
1:07 PM 33.8 °F 27.0 °F 28.4 °F 81% 29.81 in 10.0 mi WNW 8.1 mph - N/A   Overcast
1:41 PM 32.0 °F 25.6 °F 28.4 °F 87% 29.83 in 10.0 mi WNW 6.9 mph - N/A   Overcast
1:51 PM 32.0 °F 25.6 °F 28.9 °F 88% 29.87 in 10.0 mi WNW 6.9 mph - N/A   Overcast
2:51 PM 32.0 °F 24.2 °F 28.0 °F 85% 29.90 in 10.0 mi WNW 9.2 mph - N/A   Overcast
3:51 PM 32.0 °F 23.6 °F 27.0 °F 82% 29.94 in 10.0 mi NW 10.4 mph - N/A   Overcast
4:51 PM 30.9 °F 22.8 °F 27.0 °F 85% 29.97 in 9.0 mi West 9.2 mph - 0.00 in Snow Light Snow
5:51 PM 30.0 °F 21.1 °F 26.1 °F 85% 30.01 in 9.0 mi West 10.4 mph - 0.00 in Snow Light Snow
6:51 PM 28.9 °F 21.1 °F 25.0 °F 85% 30.02 in 9.0 mi West 8.1 mph - 0.00 in Snow Light Snow
7:51 PM 27.0 °F 16.7 °F 23.0 °F 85% 30.06 in 9.0 mi West 11.5 mph - 0.00 in Snow Light Snow
8:51 PM 27.0 °F 16.7 °F 21.9 °F 81% 30.08 in 9.0 mi West 11.5 mph - 0.00 in Snow Light Snow
9:51 PM 26.1 °F 15.6 °F 21.0 °F 81% 30.09 in 9.0 mi WNW 11.5 mph - 0.00 in Snow Light Snow
10:51 PM 26.1 °F 16.2 °F 21.0 °F 81% 30.13 in 8.0 mi West 10.4 mph - 0.00 in Snow Light Snow
11:37 PM 26.6 °F 16.8 °F 19.4 °F 74% 30.10 in 10.0 mi WNW 10.4 mph - 0.00 in Snow Light Snow
11:51 PM 26.1 °F 15.0 °F 19.9 °F 78% 30.15 in 10.0 mi WNW 12.7 mph 17.3 mph 0.00 in Snow Light Snow